Location: *
(32.8667°N, 13.1833°E)
Time: 21:30:28
(UTC+00:00)

Daily predictions for brighter satellites

Satellite Brightness Start Highest point End
(mag) Time Altitude Azimuth Time Altitude Azimuth Time Altitude Azimuth
USA 215 3.7 18:29:40 10° NE 18:36:10 70° NW 18:42:40 10° SW
Cosmos 2082 3.9 18:31:49 10° NNW 18:37:34 83° WSW 18:43:16 10° SSE
Cosmos 1110 Rocket 4.1 18:36:01 10° N 18:41:15 64° ENE 18:46:29 10° SSE
Tiangong 2 3.9 18:40:03 10° NNW 18:41:41 13° N 18:43:18 10° NNE
Meteor 2-10 Rocket 3.8 18:36:57 10° N 18:42:27 62° E 18:48:07 10° SSE
Cosmos 1939 Rocket 4.1 18:41:21 10° S 18:45:14 45° W 18:49:12 10° NNW
USA 186 1.3 18:44:48 10° SSE 18:47:41 72° ENE 18:50:24 10° N
Cosmos 1242 Rocket 4.1 18:52:18 10° SE 18:54:53 19° E 18:57:29 10° NE
Cosmos 2058 3.5 18:51:38 10° SSE 18:55:32 38° E 18:59:26 10° NNE
FREGAT/IRIS 4.3 18:54:31 10° SSW 18:57:04 31° W 18:59:39 10° NNW
Cosmos 2346 Rocket 4.4 18:51:50 10° N 18:57:54 83° E 19:03:56 10° S
Delta 7925 Rocket 4.1 18:57:38 10° WSW 19:02:02 37° S 19:06:26 13° ESE
DELTA 2 R/B (1) 3.6 18:58:46 10° SW 19:04:18 66° SSE 19:09:51 10° ENE
SL-4 R/B 3.2 19:02:57 10° S 19:07:02 29° SE 19:11:11 10° ENE
Resurs 01 Rocket 2.3 19:04:39 12° SE 19:08:21 37° ENE 19:12:25 10° N
Cosmos 1331 Rocket 4.3 19:06:46 10° NNW 19:12:03 72° WSW 19:17:19 10° S
Cosmos 2233 Rocket 4.3 19:10:19 10° S 19:16:35 75° W 19:22:55 10° N
Cosmos 2360 Rocket 3.1 19:14:22 10° SSE 19:18:58 26° ESE 19:23:32 10° NE
Cosmos 1980 Rocket 4.4 19:18:52 10° WSW 19:23:40 29° WNW 19:28:29 10° N
Cosmos 1461 3.7 19:20:17 10° N 19:23:56 34° ENE 19:25:56 21° ESE
Cosmos 2221 3.6 19:21:24 10° NNW 19:25:35 45° W 19:29:45 10° SSW
SJ-6B 4.2 19:23:42 10° SSW 19:27:07 34° W 19:30:32 10° NNW
ISS -2.4 19:25:33 10° WSW 19:28:45 43° NW 19:31:57 10° NNE
Cosmos 371 Rocket 3.3 19:24:15 10° NNW 19:29:08 73° ENE 19:32:32 19° SSE
H-2A R/B 2.2 19:25:25 10° SSE 19:30:52 85° WSW 19:36:18 10° NNW
Aureole 1 Rocket 3.6 19:28:48 10° SSW 19:33:04 71° WNW 19:38:49 10° NNE
ERBS 2.2 19:34:31 10° NW 19:37:50 81° SW 19:39:02 36° SSE
Cosmos 332 Rocket 3.7 19:37:02 10° NNW 19:41:51 83° ENE 19:44:40 25° SSE
Cosmos 2034 Rocket 4.3 19:39:22 20° SSE 19:43:27 46° E 19:49:23 10° NNE
USA 229 DEB 3.9 19:38:56 10° S 19:44:59 42° ESE 19:51:14 10° NE
USA 229 3.9 19:39:03 10° S 19:45:05 42° ESE 19:51:19 10° NE
CZ-2C R/B 3.0 19:43:11 10° NNE 19:48:05 41° E 19:50:02 29° SE
Cosmos 407 Rocket 4.3 19:47:12 28° ESE 19:48:07 30° E 19:52:42 10° NE
Cosmos 2322 Rocket 2.5 19:43:25 10° SSW 19:49:04 71° WNW 19:54:47 10° NNE
Terra 4.1 19:49:15 10° ENE 19:49:25 10° ENE 19:49:35 10° ENE
Cosmos 2219 Rocket 4.2 19:51:31 11° ENE 19:51:31 11° ENE 19:52:05 10° ENE
Cosmos 1869 3.3 19:46:18 10° N 19:50:15 79° W 19:52:16 28° S
Cosmos 1340 Rocket 2.8 19:46:40 10° N 19:50:46 88° W 19:52:41 30° S
Cosmos 2151 3.0 19:48:00 13° S 19:51:42 80° W 19:56:00 10° N
Cosmos 304 Rocket 4.1 19:48:07 10° N 19:52:47 48° ENE 19:54:20 35° ESE
Cosmos 44 Rocket 3.8 19:49:39 10° SW 19:54:46 64° WNW 19:59:49 10° NNE
SL-16 R/B 3.0 19:49:31 10° SW 19:55:02 54° WNW 20:00:35 10° N
Cosmos 1900 4.3 19:50:30 10° SSW 19:55:37 75° ESE 20:00:46 10° NNE
Cosmos 2333 Rocket 4.1 19:57:43 13° ENE 19:57:43 13° ENE 19:58:56 10° ENE
DMSP B5D2-2 4.2 19:53:01 10° N 19:58:14 75° WNW 20:03:24 10° SSW
ERS-1 Rocket 4.0 19:57:31 26° E 19:58:33 29° ENE 20:02:50 10° NNE
Iridium 4 Rocket 3.7 19:52:51 10° N 19:58:45 69° E 20:01:39 30° SSE
Thor Agena Rocket 4.0 19:54:15 10° NNE 19:58:54 36° E 19:59:30 35° ESE
Cosmos 1825 3.9 20:00:43 20° ENE 20:00:43 20° ENE 20:02:33 10° NE
ARGOS 4.2 19:57:49 10° S 20:02:50 43° W 20:07:57 10° NNW
ADEOS Rocket 3.4 19:59:47 10° N 20:05:11 55° WNW 20:10:32 10° SSW
Cosmos 1743 Rocket 3.7 20:05:21 47° ESE 20:05:43 48° E 20:09:56 10° NNE
Cosmos 2322 4.0 20:06:19 39° SE 20:07:20 42° ESE 20:12:38 10° NE
Cosmos 1464 Rocket 4.2 20:03:36 10° SSW 20:09:53 72° W 20:16:07 10° N
Cosmos 1844 Rocket 4.2 20:13:02 10° NNE 20:17:13 21° ENE 20:18:14 20° ENE
EO 1 Del DPAF 3.2 20:14:17 10° N 20:18:05 82° WNW 20:18:32 67° SSW
Tiangong 2 3.0 20:16:29 10° NW 20:19:05 23° NNE 20:19:08 23° NNE
SPOT 1/Viking Rocket 3.9 20:20:29 44° E 20:21:12 47° ENE 20:26:10 10° N
Cosmos 1515 Rocket 3.6 20:16:59 10° N 20:21:13 57° ENE 20:21:13 57° ENE
Cosmos 2263 Rocket 2.4 20:16:26 10° NNW 20:22:05 68° WSW 20:24:10 39° S
Cosmos 1992 Rocket 3.9 20:19:14 10° NNW 20:24:29 84° WSW 20:25:47 52° S
Spot 2 Rocket 4.1 20:25:41 31° SSW 20:27:50 51° W 20:32:48 10° NNW
Cosmos 2237 4.2 20:25:16 18° SSW 20:29:33 81° WNW 20:35:16 10° NNE
Cosmos 1892 4.3 20:29:12 21° SW 20:31:02 32° W 20:34:30 10° NNW
MetOp-B 4.5 20:30:50 37° SSW 20:32:47 59° W 20:38:04 10° NNW
SPOT 5 3.2 20:35:44 51° E 20:35:50 51° ENE 20:40:39 10° N
CZ-2C R/B 4.2 20:33:40 23° SSW 20:36:27 39° W 20:41:22 10° NNW
Meteor 2-11 Rocket 4.3 20:38:24 54° SSE 20:39:51 79° E 20:45:56 10° N
Resurs 01 Rocket 4.2 20:42:18 10° SW 20:44:53 15° W 20:47:30 10° WNW
SL-4 R/B 3.6 20:42:05 10° WSW 20:46:39 42° NW 20:51:14 10° NNE
Cosmos 2228 Rocket 3.2 20:42:14 10° N 20:46:20 70° NNE 20:46:20 70° NNE
Cosmos 1356 Rocket 4.2 20:42:35 10° N 20:45:51 46° NNE 20:45:51 46° NNE
COSMOS 2428 3.1 20:48:54 47° ENE 20:48:54 47° ENE 20:53:27 10° NNE
CARTOSAT-1 4.2 20:49:10 49° NNE 20:49:10 49° NNE 20:52:32 10° N
Cosmos 921 Rocket 3.5 20:44:20 10° NNW 20:48:18 53° W 20:48:18 53° W
USA 267 3.2 20:47:06 53° ESE 20:48:46 79° NE 20:55:20 10° NW
DELTA 2 R/B (1) 4.3 20:45:29 10° W 20:50:55 51° NNW 20:55:04 17° ENE
Landsat 7 4.0 20:57:35 68° W 20:57:35 68° W 21:02:08 10° NNW
NOSS 3-1 (C) 3.5 20:55:06 27° SW 20:58:02 65° WNW 21:04:02 10° NNE
Cosmos 1151 Rocket 4.5 20:56:35 10° NNW 21:00:27 31° W 21:00:48 31° W
Cosmos 1023 Rocket 4.5 21:02:27 76° WNW 21:02:27 76° WNW 21:07:33 10° NNE
Cosmos 2360 Rocket 3.7 20:57:37 10° SW 21:02:43 34° WNW 21:07:49 10° N
Cosmos 2237 Rocket 4.2 21:07:54 15° ENE 21:07:54 15° ENE 21:09:06 10° NE
Cosmos 676 Rocket 4.1 21:05:24 69° NNE 21:05:24 69° NNE 21:10:00 10° NNE
ASTEX 1 4.2 21:02:27 10° NNE 21:05:57 41° NE 21:05:57 41° NE
Cosmos 1954 Rocket 4.3 21:20:00 63° NNW 21:20:00 63° NNW 21:24:35 10° NNE
Cosmos 1627 Rocket 4.4 21:16:17 10° N 21:22:23 87° NW 21:22:23 87° NW
MOS 1 Rocket 4.2 21:21:41 10° N 21:25:05 47° NNW 21:25:05 47° NNW
Terra 2.7 21:27:45 48° NW 21:27:45 48° NW 21:31:15 10° NNW
Cosmos 1140 Rocket 4.4 21:27:45 42° W 21:28:06 42° WNW 21:33:01 10° N
Cosmos 2279 Rocket 4.0 21:31:09 77° N 21:31:09 77° N 21:36:52 10° N
Cosmos 2219 Rocket 2.5 21:33:10 63° NW 21:33:10 63° NW 21:38:27 10° NNE
NOSS 3-1 (A) 3.9 21:38:17 46° W 21:39:01 49° NW 21:44:54 10° NNE
Cosmos 2333 Rocket 2.7 21:39:40 57° WNW 21:39:40 57° WNW 21:45:04 10° NNE
Cosmos 2278 Rocket 3.7 21:42:41 10° N 21:46:37 27° NE 21:46:37 27° NE
Cosmos 1607 4.3 21:49:26 10° NNW 21:54:31 60° N 21:54:31 60° N
Cosmos 1844 Rocket 3.8 21:55:54 10° NNW 21:59:54 39° WNW 21:59:54 39° WNW
SeaSat 1 4.4 21:56:59 10° NNE 21:58:44 22° NE 21:58:44 22° NE
NOSS 0 Rocket 4.4 22:06:55 57° NNW 22:06:55 57° NNW 22:11:56 10° NNE
Mayak 1.4 22:26:13 10° NNW 22:27:40 18° NNW 22:27:40 18° NNW
SL-16 R/B 3.9 22:34:09 26° NE 22:34:09 26° NE 22:36:35 10° NNE
Lacrosse 4 Rocket 4.4 22:41:22 13° NNE 22:41:22 13° NNE 22:41:53 10° NNE
ATLAS CENTAUR R/B 4.1 22:38:10 10° NNW 22:39:44 19° N 22:39:44 19° N
Cosmos 2237 Rocket 3.6 22:49:41 32° NW 22:49:41 32° NW 22:53:37 10° N
COSMOS 2455 3.8 22:51:59 43° N 22:51:59 43° N 22:56:03 10° NNE
Lacrosse 5 4.3 22:52:47 10° N 22:55:50 16° NE 22:56:25 15° NE
Cosmos 2278 Rocket 4.3 23:26:36 10° NW 23:28:27 19° NW 23:28:27 19° NW
Cosmos 1943 Rocket 4.3 23:29:49 10° NNE 23:33:36 18° ENE 23:33:55 18° ENE
ATLAS 5 CENTAUR R/B 4.2 23:29:07 10° N 23:34:03 26° NE 23:35:45 23° ENE
Resurs 1-4 Rocket 4.3 23:43:43 10° NE 23:45:39 16° ENE 23:45:39 16° ENE
Lacrosse 5 rocket 4.3 23:49:54 10° NNW 23:50:38 14° NNW 23:50:38 14° NNW
